Seminole, TX

11:05 AM CST on December 03, 2016 (GMT -0600)
Seminole

Weather History for KGNC - May, 2013

Change the Weather History Date:

Saturday, May 18, 2013

  Actual Average (KHOB) Record (KHOB)
Temperature  
Mean Temperature 84 °F -  
Max Temperature 99 °F 86 °F 104 °F (2003)
Min Temperature 70 °F 56 °F 45 °F (1952)
Cooling Degree Days 18    
Growing Degree Days 34 (Base 50)    
Moisture  
Dew Point 34 °F    
Average Humidity 22    
Maximum Humidity 60    
Minimum Humidity 6    
Precipitation  
Precipitation 0.00 in - - ()
Sea Level Pressure  
Sea Level Pressure 29.84 in    
Wind  
Wind Speed 12 mph (SW)    
Max Wind Speed 23 mph    
Max Gust Speed 31 mph    
Visibility 10 miles    
Events      
Averages and records for this station are not official NWS values.
T = Trace of Precipitation, MM = Missing Value Source: NWS Daily Summary

Daily Weather History Graph

Daily Weather History Graph

Search for Another Location

Airport or City:

Trip Planner

Search our weather history database for the weather conditions in past years. The results will help you decide how hot, cold, wet, or windy it might be!

Date:

Astronomy

May. 18, 2013 Rise Set
Actual Time 6:49 AM CDT 8:44 PM CDT
Civil Twilight 6:22 AM CDT 9:12 PM CDT
Nautical Twilight 5:49 AM CDT 9:45 PM CDT
Astronomical Twilight 5:14 AM CDT 10:20 PM CDT
Moon 2:11 PM CDT (5/18) 2:20 AM CDT (5/18)
Length of Visible Light 14h 49m
Length of Day
13h 54m
First Quarter, 55% of the Moon is Illuminated
May 18
First Quarter
May 24
Full
May 31
Last Quarter
Jun 8
New
Jun 16
First Quarter

Hourly Weather History & Observations

Time (CDT) Temp. Dew Point Humidity Pressure Visibility Wind Dir Wind Speed Gust Speed Precip Events Conditions
12:15 AM 83.3 °F 36.0 °F 18% 29.88 in 10.0 mi South 15.0 mph 19.6 mph N/A   Clear
12:35 AM 82.4 °F 39.2 °F 21% 29.88 in 10.0 mi South 15.0 mph - N/A   Clear
12:55 AM 81.1 °F 40.1 °F 23% 29.88 in 10.0 mi South 13.8 mph - N/A   Clear
1:15 AM 80.4 °F 40.5 °F 24% 29.89 in 10.0 mi SSW 11.5 mph - N/A   Clear
1:35 AM 79.7 °F 41.0 °F 25% 29.88 in 10.0 mi SSW 12.7 mph - N/A   Clear
1:55 AM 80.8 °F 41.9 °F 25% 29.88 in 10.0 mi SSW 17.3 mph - N/A   Clear
2:15 AM 81.1 °F 42.6 °F 26% 29.88 in 10.0 mi SSW 16.1 mph 23.0 mph N/A   Clear
2:35 AM 80.8 °F 43.9 °F 27% 29.88 in 10.0 mi SSW 17.3 mph 23.0 mph N/A   Clear
2:55 AM 80.6 °F 44.4 °F 28% 29.88 in 10.0 mi SSW 15.0 mph - N/A   Clear
3:15 AM 80.1 °F 44.8 °F 29% 29.88 in 10.0 mi SSW 16.1 mph 21.9 mph N/A   Clear
3:35 AM 79.5 °F 44.1 °F 28% 29.88 in 10.0 mi SW 11.5 mph - N/A   Clear
3:55 AM 78.4 °F 44.1 °F 29% 29.89 in 10.0 mi SW 11.5 mph 18.4 mph N/A   Clear
4:15 AM 76.3 °F 43.3 °F 31% 29.88 in 10.0 mi SW 9.2 mph - N/A   Clear
4:35 AM 75.2 °F 45.5 °F 35% 29.88 in 10.0 mi Calm Calm - N/A   Clear
4:55 AM 73.9 °F 47.5 °F 39% 29.87 in 10.0 mi SSW 9.2 mph - N/A   Clear
5:15 AM 73.8 °F 50.5 °F 44% 29.88 in 10.0 mi SSW 11.5 mph - N/A   Clear
5:35 AM 73.8 °F 50.9 °F 45% 29.88 in 10.0 mi SSW 9.2 mph - N/A   Clear
5:55 AM 72.5 °F 50.2 °F 45% 29.87 in 10.0 mi SW 8.1 mph - N/A   Clear
6:15 AM 72.3 °F 52.5 °F 50% 29.87 in 10.0 mi SSW 9.2 mph - N/A   Clear
6:35 AM 71.2 °F 52.9 °F 52% 29.88 in 10.0 mi SW 8.1 mph - N/A   Clear
6:55 AM 70.7 °F 54.1 °F 56% 29.88 in 10.0 mi SSW 9.2 mph - N/A   Clear
7:15 AM 70.3 °F 54.7 °F 58% 29.89 in 10.0 mi SSW 8.1 mph - N/A   Clear
7:35 AM 70.7 °F 55.6 °F 59% 29.89 in 10.0 mi SSW 6.9 mph - N/A   Clear
7:55 AM 71.1 °F 56.7 °F 60% 29.89 in 10.0 mi SSW 6.9 mph - N/A   Clear
8:15 AM 72.3 °F 57.6 °F 60% 29.90 in 10.0 mi SSW 10.4 mph - N/A   Clear
8:35 AM 73.6 °F 58.1 °F 58% 29.90 in 10.0 mi SSW 11.5 mph - N/A   Clear
8:55 AM 75.2 °F 58.1 °F 55% 29.90 in 10.0 mi SSW 13.8 mph 17.3 mph N/A   Clear
9:15 AM 77.0 °F 55.9 °F 48% 29.90 in 10.0 mi SSW 11.5 mph - N/A   Clear
9:35 AM 79.7 °F 51.3 °F 37% 29.90 in 10.0 mi SSW 11.5 mph - N/A   Clear
9:55 AM 81.3 °F 47.3 °F 30% 29.90 in 10.0 mi SW 11.5 mph - N/A   Clear
10:15 AM 82.6 °F 45.1 °F 27% 29.90 in 10.0 mi SW 9.2 mph - N/A   Clear
10:35 AM 84.4 °F 40.5 °F 21% 29.90 in 10.0 mi West 10.4 mph - N/A   Clear
10:55 AM 85.3 °F 34.9 °F 17% 29.90 in 10.0 mi WNW 6.9 mph - N/A   Clear
11:15 AM 86.0 °F 35.4 °F 16% 29.89 in 10.0 mi Calm Calm - N/A   Clear
11:35 AM 87.1 °F 33.8 °F 15% 29.89 in 10.0 mi Calm Calm - N/A   Clear
11:55 AM 88.3 °F 32.4 °F 14% 29.89 in 10.0 mi WSW 3.5 mph - N/A   Clear
12:15 PM 89.6 °F 32.0 °F 13% 29.89 in 10.0 mi SW 5.8 mph - N/A   Clear
12:35 PM 90.3 °F 30.7 °F 12% 29.88 in 10.0 mi SW 6.9 mph - N/A   Clear
12:55 PM 91.2 °F 30.7 °F 12% 29.87 in 10.0 mi Calm Calm - N/A   Clear
1:15 PM 92.7 °F 29.7 °F 11% 29.86 in 10.0 mi SW 5.8 mph - N/A   Clear
1:35 PM 94.5 °F 27.9 °F 9% 29.85 in 10.0 mi SSW 10.4 mph - N/A   Clear
2:15 PM 95.0 °F 26.6 °F 9% 29.83 in 10.0 mi SSE 8.1 mph - N/A   Clear
2:35 PM 95.9 °F 26.1 °F 8% 29.82 in 10.0 mi WSW 10.4 mph - N/A   Clear
2:55 PM 97.2 °F 26.4 °F 8% 29.81 in 10.0 mi West 9.2 mph 19.6 mph N/A   Clear
3:15 PM 97.0 °F 26.2 °F 8% 29.80 in 10.0 mi West 15.0 mph 19.6 mph N/A   Clear
3:35 PM 97.9 °F 25.7 °F 8% 29.80 in 10.0 mi WNW 13.8 mph 19.6 mph N/A   Clear
3:55 PM 97.9 °F 24.8 °F 7% 29.80 in 10.0 mi WSW 16.1 mph 24.2 mph N/A   Clear
4:15 PM 97.9 °F 23.5 °F 7% 29.79 in 5.0 mi West 19.6 mph 25.3 mph N/A   Haze
4:35 PM 97.2 °F 22.8 °F 7% 29.78 in 10.0 mi West 17.3 mph 25.3 mph N/A   Clear
4:55 PM 96.8 °F 21.0 °F 7% 29.78 in 10.0 mi West 15.0 mph 24.2 mph N/A   Clear
5:15 PM 96.6 °F 19.4 °F 6% 29.78 in 7.0 mi WSW 15.0 mph 28.8 mph N/A   Clear
5:35 PM 96.3 °F 19.6 °F 6% 29.78 in 10.0 mi WSW 18.4 mph - N/A   Clear
5:55 PM 95.7 °F 19.8 °F 6% 29.77 in 10.0 mi WSW 15.0 mph 28.8 mph N/A   Clear
6:15 PM 96.3 °F 20.5 °F 6% 29.77 in 10.0 mi SW 18.4 mph 25.3 mph N/A   Clear
6:35 PM 94.8 °F 20.3 °F 7% 29.76 in 10.0 mi SSW 16.1 mph 26.5 mph N/A   Clear
6:55 PM 94.6 °F 17.4 °F 6% 29.76 in 7.0 mi WSW 19.6 mph 29.9 mph N/A   Clear
7:15 PM 93.2 °F 19.4 °F 7% 29.77 in 4.0 mi WSW 23.0 mph 31.1 mph N/A   Haze
7:35 PM 92.5 °F 18.7 °F 7% 29.77 in 7.0 mi WSW 20.7 mph 26.5 mph N/A   Clear
7:55 PM 91.4 °F 18.3 °F 7% 29.77 in 10.0 mi WSW 18.4 mph 26.5 mph N/A   Clear
8:15 PM 90.3 °F 18.3 °F 7% 29.77 in 10.0 mi WSW 20.7 mph 26.5 mph N/A   Clear
8:35 PM 88.7 °F 16.7 °F 7% 29.77 in 10.0 mi SW 15.0 mph 26.5 mph N/A   Clear
8:55 PM 86.9 °F 18.3 °F 8% 29.78 in 10.0 mi WSW 16.1 mph 20.7 mph N/A   Clear
9:15 PM 85.8 °F 18.3 °F 8% 29.78 in 10.0 mi SW 12.7 mph - N/A   Clear
9:35 PM 84.4 °F 18.0 °F 9% 29.79 in 10.0 mi SW 16.1 mph - N/A   Clear
9:55 PM 83.1 °F 17.6 °F 9% 29.80 in 10.0 mi SW 13.8 mph - N/A   Clear
10:15 PM 82.6 °F 17.1 °F 9% 29.80 in 10.0 mi WSW 15.0 mph 21.9 mph N/A   Clear
10:35 PM 81.7 °F 17.2 °F 9% 29.81 in 10.0 mi WSW 11.5 mph - N/A   Clear
10:55 PM 79.0 °F 16.7 °F 10% 29.82 in 10.0 mi WSW 8.1 mph - N/A   Clear
11:15 PM 76.5 °F 16.7 °F 11% 29.82 in 10.0 mi WSW 6.9 mph - N/A   Clear
11:35 PM 73.8 °F 16.3 °F 11% 29.82 in 10.0 mi WSW 6.9 mph - N/A   Clear
11:55 PM 74.3 °F 17.1 °F 11% 29.82 in 10.0 mi WSW 8.1 mph - N/A   Clear